Change the Weather History Date:

Monday, October 22, 2012

  Actual Average Record
Temperature  
Mean Temperature 64 °F -  
Max Temperature 73 °F 62 °F 84 °F (1996)
Min Temperature 55 °F 47 °F 41 °F (2007)
Degree Days  
Heating Degree Days 1    
Growing Degree Days 14 (Base 50)    
Moisture  
Dew Point 58 °F    
Average Humidity 88    
Maximum Humidity 100    
Minimum Humidity 60    
Precipitation  
Precipitation 0.00 in - - ()
Sea Level Pressure  
Sea Level Pressure 30.03 in    
Wind  
Wind Speed 1 mph ()    
Max Wind Speed 6 mph    
Max Gust Speed -    
Visibility 5.5 miles    
Events      
Averages and records for this station are not official NWS values.
T = Trace of Precipitation, MM = Missing Value Source: Averaged Metar Reports

Daily Weather History Graph

Daily Weather History Graph

Search for Another Location

Airport or City:

Trip Planner

Search our weather history database for the weather conditions in past years. The results will help you decide how hot, cold, wet, or windy it might be!

Date:

Astronomy

Oct. 22, 2012 Rise Set
Actual Time 8:34 AM CEST 7:17 PM CEST
Civil Twilight 8:05 AM CEST 7:46 PM CEST
Nautical Twilight 7:32 AM CEST 8:19 PM CEST
Astronomical Twilight 6:58 AM CEST 8:52 PM CEST
Moon 3:26 PM CEST (10/22) 12:53 AM CEST (10/22)
Length of Visible Light 11h 40m
Length of Day
10h 42m
First Quarter, 53% of the Moon is Illuminated
Oct 22
First Quarter
Oct 29
Full
Nov 7
Last Quarter
Nov 13
New
Nov 20
First Quarter

Hourly Weather History & Observations

Time (CEST) Temp. Dew Point Humidity Pressure Visibility Wind Dir Wind Speed Gust Speed Precip Events Conditions
5:00 AM 55.4 °F 55.4 °F 100% 29.98 in - Calm Calm - N/A   Clear
5:30 AM 55.4 °F 55.4 °F 100% 29.98 in 5.0 mi Calm Calm - N/A   Unknown
6:30 AM 55.4 °F 55.4 °F 100% 30.01 in 5.0 mi Calm Calm - N/A   Unknown
7:00 AM 55.4 °F 55.4 °F 100% 30.01 in 5.0 mi Calm Calm - N/A   Unknown
7:30 AM 57.2 °F 55.4 °F 94% 30.01 in 5.0 mi Calm Calm - N/A   Unknown
8:30 AM 55.4 °F 55.4 °F 100% 30.01 in - Calm Calm - N/A   Clear
9:00 AM 55.4 °F 55.4 °F 100% 30.04 in - Variable 1.2 mph - N/A   Clear
11:00 AM 59.0 °F 57.2 °F 94% 30.06 in - Calm Calm - N/A   Clear
12:30 PM 66.2 °F 59.0 °F 78% 30.06 in - Variable 2.3 mph - N/A   Clear
1:00 PM 69.8 °F 59.0 °F 68% 29.77 in - Variable 3.5 mph - N/A   Clear
1:30 PM 71.6 °F 57.2 °F 60% 29.77 in - Variable 1.2 mph - N/A   Clear
2:30 PM 73.4 °F 60.8 °F 65% 30.06 in - Variable 1.2 mph - N/A   Clear
4:30 PM 71.6 °F 62.6 °F 73% 30.04 in - West 3.5 mph - N/A   Clear
5:00 PM 71.6 °F 60.8 °F 69% 30.04 in 6.2 mi West 4.6 mph - N/A   Partly Cloudy
5:30 PM 69.8 °F 60.8 °F 73% 30.04 in 6.2 mi West 5.8 mph - N/A   Partly Cloudy
6:00 PM 68.0 °F 59.0 °F 73% 30.04 in 6.2 mi West 4.6 mph - N/A   Partly Cloudy
6:30 PM 68.0 °F 60.8 °F 78% 30.04 in - WNW 4.6 mph - N/A   Clear
7:00 PM 64.4 °F 60.8 °F 88% 30.06 in - WSW 3.5 mph - N/A   Clear
7:30 PM 62.6 °F 60.8 °F 94% 30.06 in - Variable 2.3 mph - N/A   Clear
8:00 PM 60.8 °F 59.0 °F 94% 30.06 in - Calm Calm - N/A   Clear
8:30 PM 60.8 °F 59.0 °F 94% 30.06 in - Variable 1.2 mph - N/A   Clear
9:00 PM 59.0 °F 57.2 °F 94% 30.06 in - Variable 2.3 mph - N/A   Clear
9:30 PM 60.8 °F 59.0 °F 94% 30.09 in - Variable 2.3 mph - N/A   Clear
10:00 PM 59.0 °F 57.2 °F 94% 30.09 in - Variable 2.3 mph - N/A   Clear
10:30 PM 59.0 °F 57.2 °F 94% 30.09 in - Variable 1.2 mph - N/A   Clear
11:00 PM 57.2 °F 57.2 °F 100% 30.09 in - Variable 2.3 mph - N/A   Clear
11:30 PM 57.2 °F 57.2 °F 100% 30.09 in - Calm Calm - N/A   Clear